Terminal Aerodrome Forecast
Issued by NWS Anchorage, AK

Home | Current Version | Previous Version | Text Only | Print | Product List | Glossary On
Versions: 1 2 3 4 5 6 7 8 9 10 11 12 13 14 15 16 17 18 19
000
FTAK31 PANC 290524
TAFANC
TAF
PANC 290524Z 2906/3012 16008KT P6SM BKN070 BKN120
      TEMPO 2906/2910 16013KT
     FM292000 16012G20KT P6SM BKN060 BKN110
     FM300900 16007KT P6SM BKN110=

USA.gov is the U.S. government's official web portal to all federal, state and local government web resources and services.